SES-5 (EGNOS/PRN 136)

Last updated on Aug. 14, 2020, 5:31 a.m. UTC

1 38652U 12036A   20226.33640969  .00000035  00000-0  00000+0 0  9995
2 38652   0.0465  94.3437 0001908  50.5242 303.4399  1.00270369 29670
UTC
Height (km)
Latitude
Longitude
Inclination
Orbital Period
UTC large
Height (km)
Speed (km/s)
/
Latitude / Longitude
Inclination (degrees)
Orbital Period (minutes)
Azimuth
Elevation
Range (km)
Doppler Factor
iOS Compass Heading
iOS Angle

Next 30 passes for location: Hong Kong

Rise time Rise Azimuth (degrees) Set time Set Azimuth (degrees) Duration Max altitude (degrees)

No matching passes for this satellites